Regional Weather Roundup
Issued by NWS Jackson, KY

Home | Current Version | Previous Version | Graphics & Text | Print | Product List | Glossary On
Versions: 1 2 3 4 5 6 7 8 9 10 11 12 13 14 15 16 17 18 19 20 21 22 23 24 25 26 27 28 29 30 31 32 33 34 35 36 37 38 39 40 41 42 43 44 45 46 47 48 49 50
000
ASUS43 KJKL 020410
RWRJKL

EAST KENTUCKY HOURLY WEATHER ROUNDUP
NATIONAL WEATHER SERVICE JACKSON KY
1200 AM EDT TUE JUN 02 2015

NOTE: "FAIR" INDICATES FEW OR NO CLOUDS BELOW 12,000 FEET WITH
NO SIGNIFICANT WEATHER AND/OR OBSTRUCTIONS TO VISIBILITY.

* THESE REPORTS ARE NOT UNDER NWS QUALITY CONTROL AND MAY NOT
  REPORT WEATHER SUCH AS PRECIPITATION AND FOG.

KYZ079-080-083-085-087-088-110-112-115-119-120-020500
...EASTERN KENTUCKY...

CITY           SKY/WX    TMP DP  RH WIND       PRES   REMARKS
JACKSON        FOG       56  54  93 VRB3      30.11S VSB 1/4
LONDON         CLOUDY    59  55  87 N6        30.11R FOG
SOMERSET*      CLOUDY    55  55 100 NE6       30.12F
MONTICELLO*    CLOUDY    59  59 100 NE10      30.12F
MIDDLESBORO*   CLOUDY    64  63  98 CALM      30.08F
HARLAN APT*    CLOUDY    63  61  94 CALM      30.09R
HAZARD APT*    FOG       57  57 100 CALM      30.11S VSB 3/4
BLACK MTN*       N/A     55  55 100 S1          N/A
PIKEVILLE APT* FOG       55  55 100 NW6       30.11S VSB 1/2
BIG SANDY*     CLOUDY    56  56  99 N3        30.11F FOG
MOREHEAD APT*  CLOUDY    54  52  94 N6        30.15S FOG
$$

KYZ035-036-041-042-044-050-067-078-099-020500
...CENTRAL KENTUCKY...

CITY           SKY/WX    TMP DP  RH WIND       PRES   REMARKS
MT STERLING*   CLOUDY    54  54 100 NE7       30.15S FOG
FLEMING/MASON* CLOUDY    54  52  94 NE8       30.15S
DANVILLE*      CLOUDY    54  54 100 NE6       30.15R
RICHMOND*      CLOUDY    55  52  88 NE5       30.12F
LEXINGTON      CLOUDY    55  52  89 NE7       30.14R
FRANKFORT      CLOUDY    56  51  84 NE5       30.13S
$$

KYZ091>093-OHZ055-061-077-WVZ005-015-034-035-042-020500
...SOUTHERN OHIO/WEST VIRGINIA...

CITY           SKY/WX    TMP DP  RH WIND       PRES   REMARKS
COVINGTON      CLOUDY    56  50  80 NE12      30.14F
COLUMBUS       CLOUDY    53  48  83 NE6       30.16S
DAYTON         PTCLDY    53  48  83 N5        30.18R
WILMINGTON     CLOUDY    52  48  86 NE7       30.16R
HUNTINGTON     LGT RAIN  54  53  97 VRB7      30.12R FOG
CHARLESTON     LGT RAIN  57  55  93 NW3       30.08S FOG
PINEVILLE*     CLOUDY    64  64 100 MISG      30.12F
BECKLEY        FOG       61  59  93 N5        30.09F VSB 1/4
BLUEFIELD      CLOUDY    63  59  87 SW3       30.11F
$$

VAZ002-007-008-TNZ017-027-036-066-071-020500
...SOUTHWEST VIRGINIA/EAST TENNESSEE...

CITY           SKY/WX    TMP DP  RH WIND       PRES   REMARKS
WISE*          CLOUDY    63  63 100 CALM      30.12S
JONESVILLE*    CLOUDY    64  64 100 CALM      30.10S
ABINGDON*      CLOUDY    64  63  99 CALM      30.09S
BRISTOL        CLOUDY    64  63  96 CALM      30.08R
KNOXVILLE      CLOUDY    68  60  75 N5        30.04F
OAK RIDGE      CLOUDY    67  64  90 CALM      30.08R
CROSSVILLE     CLOUDY    66  62  87 CALM      30.10S
NASHVILLE      CLOUDY    63  61  93 NW8       30.10R
$$

...KEY TO REMARKS...
VSB - VISIBILITY IN MILES
WCI - WIND CHILL INDEX
HX  - HEAT INDEX

$$


USA.gov is the U.S. government's official web portal to all federal, state and local government web resources and services.